816  
FPUS83 KFGF 281231  
OPUFGF  
PRAIRIE TO PINES WEATHER ROUNDUP  
NATIONAL WEATHER SERVICE EASTERN NORTH DAKOTA/GRAND FORKS ND  
600 AM CST MON NOV 28 2022  
 
**SATELLITE DATA USED TO AUGMENT SKY COVER AT AUTOMATED STATIONS**  
***** WEATHER ACROSS EASTERN NORTH DAKOTA *****  
 
CITY SKY/WX TMP DP RH WIND PRES REMARKS  
GRAND FORKS CLOUDY 31 25 78 S15 29.51S WCI 20  
6HR MIN TEMP: 30; 6HR MAX TEMP: 32;  
 
GRND FORKS AFB CLOUDY 30 25 79 S14G24 29.49S WCI 20  
GRND FORKS NWS N/A 30 26 85 S12 29.47F WCI 20  
BUXTON NOT AVBL  
DEVILS LAKE CLOUDY 31 25 78 S13 29.45S WCI 21  
6HR MIN TEMP: 29; 6HR MAX TEMP: 31; 6HR PCP: TRACE;  
 
FARGO CLOUDY 31 23 72 SE16G26 29.53F WCI 20  
6HR MIN TEMP: 29; 6HR MAX TEMP: 31;  
 
WAHPETON ARPT CLOUDY 30 25 80 SE16 29.54F WCI 19  

 
 
***** WEATHER ACROSS CENTRAL AND WESTERN NORTH DAKOTA *****  
 
CITY SKY/WX TMP DP RH WIND PRES REMARKS  
JAMESTOWN CLOUDY 30 23 75 S10 29.47F WCI 21  
6HR MIN TEMP: 30; 6HR MAX TEMP: 31;  
 
BISMARCK CLOUDY 35 26 69 NW9 29.48F  
6HR MIN TEMP: 25; 6HR MAX TEMP: 35; 6HR PCP: TRACE;  
 
MINOT MOCLDY 35 24 64 SW21G31 29.40R WCI 24  
6HR MIN TEMP: 34; 6HR MAX TEMP: 37;  
 
MINOT AFB CLOUDY 33 25 72 W29G36 29.36R WCI 19  
6HR MIN TEMP: 31; 6HR MAX TEMP: 35;  
 
GARRISON N/A 33 29 85 W10 29.43S WCI 25  
6HR MIN TEMP: 29; 6HR MAX TEMP: 36;  
 
WILLISTON NOT AVBL  
DICKINSON MOCLDY 29 22 75 W25G33 29.46S WCI 14  
6HR MIN TEMP: 29; 6HR MAX TEMP: 36; 6HR PCP: TRACE;  
 
HETTINGER FAIR 29 19 66 W15 29.51S WCI 18  
6HR MIN TEMP: 28; 6HR MAX TEMP: 35;  
 

 
 
***** OTHER OBSERVATIONS NORTHEAST NORTH DAKOTA *****  
 
CITY SKY/WX TMP DP RH WIND PRES REMARKS  
WALHALLA FAIR 28 28 100 S13 29.44S WCI 18  
LANGDON CLOUDY 28 28 100 S21 29.42S WCI 15  
CAVALIER FAIR 28 28 100 S18 29.46S WCI 16  
GRAFTON FAIR 30 27 86 S14 29.51R WCI 20  
CANDO CLOUDY 30 28 93 S15 29.42F WCI 19  
FORT TOTTEN N/A 30 26 83 S7 29.95S WCI 23  
ROLLA FAIR 28 27 93 SW18 29.34F WCI 16  
RUGBY FAIR 30 27 86 SW12 29.40S WCI 21  
***** THE ABOVE OBSERVATIONS ARE NON NWS ARE NOT QUALITY  
CONTROLLED AND MAY MIS-REPORT RAIN FOR SNOW...  

 
 
***** OTHER OBSERVATIONS SOUTHEAST NORTH DAKOTA *****  
 
CITY SKY/WX TMP DP RH WIND PRES REMARKS  
COOPERSTOWN CLOUDY 28 28 100 S13 29.49S WCI 18  
VALLEY CITY CLOUDY 27 27 100 S8 29.50F WCI 18  
OAKES CLOUDY 30 25 80 S6 29.52S WCI 24  
GWINNER CLOUDY 28 28 100 S6 29.53R WCI 22  
SHEYENNE NWR N/A 29 24 80 SE10 29.95S WCI 20  
BUFFALO NOT AVBL  
WYNDMERE NOT AVBL  
***** THE ABOVE OBSERVATIONS ARE NON NWS ARE NOT QUALITY  
CONTROLLED AND MAY MIS-REPORT RAIN FOR SNOW...  

 
 
***** WEATHER ACROSS NORTHERN MINNESOTA *****  
 
CITY SKY/WX TMP DP RH WIND PRES REMARKS  
FLAG ISLAND N/A 28 21 74 S21G29 29.60F WCI 15  
WARROAD N/A 30 25 80 SE9 29.58F WCI 22  
ROSEAU CLOUDY 32 27 80 SE12 29.56F WCI 23  
HALLOCK FAIR 30 27 86 SE22 29.49F WCI 17  
THF RVR FALLS CLOUDY 29 25 85 SE18 29.56F WCI 16  
6HR MIN TEMP: 28; 6HR MAX TEMP: 30;  
 
HALSTAD NOT AVBL  
FOSSTON MOCLDY 28 21 74 SE8 29.56F WCI 20  
BAUDETTE CLOUDY 29 20 69 SE13G22 29.63F WCI 19  
6HR MIN TEMP: 28; 6HR MAX TEMP: 30;  
 
WASKISH CLOUDY 30 23 74 SE8 29.63F WCI 23  
CROOKSTON N/A 32 25 74 S20 29.53R WCI 20  

 
***** WEATHER ACROSS CENTRAL AND WEST MINNESOTA *****  
 
CITY SKY/WX TMP DP RH WIND PRES REMARKS  
BEMIDJI FAIR 26 22 84 SE12 29.60F WCI 16  
6HR MIN TEMP: 24; 6HR MAX TEMP: 26;  
 
PARK RAPIDS FAIR 26 22 84 SE12 29.61F WCI 16  
6HR MIN TEMP: 24; 6HR MAX TEMP: 26;  
 
WADENA MOCLDY 28 25 86 SE9 29.60F WCI 20  
DETROIT LAKES N/A N/A N/A N/A SE12 29.56F  
MOORHEAD FAIR 32 25 74 S17G25 29.54F WCI 21  
FERGUS FALLS CLOUDY 30 23 74 SE18 29.55F WCI 18  
ELBOW LAKE CLOUDY 30 24 78 SE21G26 29.57F WCI 17  
6HR MIN TEMP: 27; 6HR MAX TEMP: 30;  
 
MORRIS MN N/A 28 21 74 SE18 29.57F WCI 16  
STAPLES N/A 28 25 86 SE5 29.63F WCI 23  
WHEATON N/A 28 25 86 SE12 29.57S WCI 18  

 
***** WEATHER ELSEWHERE ACROSS MINNESOTA *****  
 
CITY SKY/WX TMP DP RH WIND PRES REMARKS  
DULUTH CLOUDY 29 20 69 S12 29.75F WCI 19  
6HR MIN TEMP: 21; 6HR MAX TEMP: 29;  
 
INTRNTL FALLS CLOUDY 28 19 69 SE9 29.69F WCI 19  
6HR MIN TEMP: 21; 6HR MAX TEMP: 28;  
 
ELY CLOUDY 28 21 74 SE8 29.75F WCI 20  
CLOQUET NOT AVBL  
BRAINERD FAIR 29 23 78 SE7 29.67F WCI 22  
6HR MIN TEMP: 26; 6HR MAX TEMP: 30;  
 
HIBBING CLOUDY 25 20 81 SE9 29.72F WCI 15  
6HR MIN TEMP: 16; 6HR MAX TEMP: 25;  
 
ALEXANDRIA CLOUDY 28 23 81 SE14 29.60F WCI 17  
6HR MIN TEMP: 26; 6HR MAX TEMP: 28;  
 
SAINT CLOUD FAIR 27 24 89 SE7 29.71S WCI 19  
6HR MIN TEMP: 24; 6HR MAX TEMP: 27;  
 
MINNEAPOLIS MOCLDY 27 22 81 SE9 29.77F WCI 18  
6HR MIN TEMP: 25; 6HR MAX TEMP: 29;  
 

 
 
***** WEATHER ACROSS SOUTH DAKOTA *****  
 
CITY SKY/WX TMP DP RH WIND PRES REMARKS  
SIOUX FALLS CLOUDY 32 20 61 S17 29.57F WCI 21  
6HR MIN TEMP: 30; 6HR MAX TEMP: 33;  
 
BROOKINGS FAIR 28 20 71 S16 29.54F WCI 16  
WATERTOWN FAIR 27 21 78 S15 29.50F WCI 15  
6HR MIN TEMP: 25; 6HR MAX TEMP: 28;  
 
HURON FAIR 28 20 71 S6 29.52R WCI 22  
6HR MIN TEMP: 28; 6HR MAX TEMP: 31;  
 
SISSETON N/A 30 24 78 SE9 29.53F WCI 22  
ABERDEEN FAIR 24 20 84 SW3 29.52R  
6HR MIN TEMP: 24; 6HR MAX TEMP: 33;  
 
MITCHELL FAIR 33 20 58 S9 29.53S  
PIERRE FAIR 28 22 78 W9 29.51R WCI 19  
6HR MIN TEMP: 26; 6HR MAX TEMP: 32;  
 
MOBRIDGE FAIR 30 22 72 NW5 29.48S  
RAPID CITY MOCLDY 32 20 61 NW14 29.57R WCI 22  
6HR MIN TEMP: 29; 6HR MAX TEMP: 38;  
 

 
 
***** SOME WEATHER IN NEARBY STATES *****  
 
CITY SKY/WX TMP DP RH WIND PRES REMARKS  
GLASGOW MT FLURRIES 23 13 65 NW26G40 29.58R WCI 6  
GREAT FALLS MT LGT SNOW 15 13 91 N14 29.72R VSB 3/4 WCI 0  
6HR MIN TEMP: 17; 6HR MAX TEMP: 22; 6HR PCP: 0.04;  
 
CHEYENNE WY FAIR 35 12 38 SW12 29.61F  
6HR MIN TEMP: 33; 6HR MAX TEMP: 39;  
 
SCOTTSBLUFF NE FAIR 41 17 38 W8 29.60S  
6HR MIN TEMP: 41; 6HR MAX TEMP: 46;  
 
OMAHA NE FAIR 24 20 84 SE9 29.77F WCI 14  
6HR MIN TEMP: 22; 6HR MAX TEMP: 27;  
 
DES MOINES IA FAIR 23 19 85 SE6 29.83F WCI 16  
6HR MIN TEMP: 22; 6HR MAX TEMP: 28;  
 
DAVENPORT IA FAIR 24 21 88 SE5 29.88F WCI 18  
6HR MIN TEMP: 20; 6HR MAX TEMP: 30;  
 
CHICAGO IL FAIR 30 25 81 CALM 29.90R  
6HR MIN TEMP: 30; 6HR MAX TEMP: 35;  
 
EAU CLAIRE WI FAIR 19 15 84 E3 29.83S  
6HR MIN TEMP: 15; 6HR MAX TEMP: 22;  
 
LA CROSSE WI FAIR 22 20 92 SE7 29.86S WCI 13  
6HR MIN TEMP: 21; 6HR MAX TEMP: 26;  
 

 
 
***** SOME NATIONAL WEATHER *****  
 
CITY SKY/WX TMP DP RH WIND PRES REMARKS  
LA GUARDIA NY FAIR 55 43 63 W18G25 29.53R  
6HR MIN TEMP: 54; 6HR MAX TEMP: 56;  
 
CLICK HERE TO GO TO PREVIOUS BULLETINS.

The Nexlab ND Page
The Nexlab MN Page Main Text Page